Time,TemperatureF,DewpointF,PressureIn,WindDirection,WindDirectionDegrees,WindSpeedMPH,WindSpeedGustMPH,Humidity,HourlyPrecipIn,Conditions,Clouds,dailyrainin,SoftwareType,DateUTC
2013-10-01 00:00:00,82.2,72.7,29.99,ESE,112,1.0,7.0,73,0.00,,,0.00,VWS V14.01,2013-10-01 04:00:00,
2013-10-01 00:15:00,82.1,73.0,29.99,East,90,1.0,5.0,74,0.00,,,0.00,VWS V14.01,2013-10-01 04:15:00,
2013-10-01 00:30:00,81.8,72.7,29.98,East,90,1.0,7.0,74,0.00,,,0.00,VWS V14.01,2013-10-01 04:30:00,
2013-10-01 00:45:00,81.8,72.7,29.98,ENE,68,1.0,5.0,74,0.00,,,0.00,VWS V14.01,2013-10-01 04:45:00,
2013-10-01 01:00:00,81.7,72.6,29.98,ENE,68,1.0,3.0,74,0.00,,,0.00,VWS V14.01,2013-10-01 05:00:00,
2013-10-01 01:15:00,81.6,72.5,29.98,NW,315,0.0,3.0,74,0.00,,,0.00,VWS V14.01,2013-10-01 05:15:00,
2013-10-01 01:30:00,81.4,72.7,29.98,East,90,1.0,4.0,75,0.00,,,0.00,VWS V14.01,2013-10-01 05:30:00,
2013-10-01 01:45:00,81.4,72.7,29.98,East,90,0.0,2.0,75,0.00,,,0.00,VWS V14.01,2013-10-01 05:45:00,
2013-10-01 02:00:00,81.3,73.0,29.98,ESE,112,0.0,3.0,76,0.00,,,0.00,VWS V14.01,2013-10-01 06:00:00,
2013-10-01 02:15:00,81.2,72.5,29.97,ENE,68,0.0,4.0,75,0.00,,,0.00,VWS V14.01,2013-10-01 06:15:00,
2013-10-01 02:30:00,80.8,72.1,29.97,ENE,68,1.0,3.0,75,0.00,,,0.00,VWS V14.01,2013-10-01 06:30:00,
2013-10-01 02:45:00,80.4,72.2,29.97,ESE,112,0.0,4.0,76,0.00,,,0.00,VWS V14.01,2013-10-01 06:45:00,
2013-10-01 03:00:00,79.9,71.7,29.97,ESE,112,0.0,1.0,76,0.00,,,0.00,VWS V14.01,2013-10-01 07:00:00,
2013-10-01 03:15:00,79.4,71.2,29.97,ESE,112,0.0,1.0,76,0.00,,,0.00,VWS V14.01,2013-10-01 07:15:00,
2013-10-01 03:30:00,79.0,71.2,29.96,ESE,112,0.0,1.0,77,0.00,,,0.00,VWS V14.01,2013-10-01 07:30:00,
2013-10-01 03:45:00,78.6,71.2,29.96,ESE,112,0.0,0.0,78,0.00,,,0.00,VWS V14.01,2013-10-01 07:45:00,
2013-10-01 04:00:00,78.3,71.3,29.96,ESE,112,0.0,1.0,79,0.00,,,0.00,VWS V14.01,2013-10-01 08:00:00,
2013-10-01 04:15:00,78.1,71.1,29.96,ESE,112,0.0,1.0,79,0.00,,,0.00,VWS V14.01,2013-10-01 08:15:00,
2013-10-01 04:30:00,77.8,71.1,29.96,ESE,112,0.0,1.0,80,0.00,,,0.00,VWS V14.01,2013-10-01 08:30:00,
2013-10-01 04:45:00,78.0,71.3,29.96,ESE,112,0.0,2.0,80,0.00,,,0.00,VWS V14.01,2013-10-01 08:45:00,
2013-10-01 05:00:00,77.8,71.1,29.96,ESE,112,0.0,1.0,80,0.00,,,0.00,VWS V14.01,2013-10-01 09:00:00,
2013-10-01 05:15:00,77.3,71.0,29.96,ESE,112,0.0,0.0,81,0.00,,,0.00,VWS V14.01,2013-10-01 09:15:00,
2013-10-01 05:30:00,77.0,71.1,29.97,ESE,112,0.0,0.0,82,0.00,,,0.00,VWS V14.01,2013-10-01 09:30:00,
2013-10-01 05:45:00,77.5,71.6,29.97,ESE,112,0.0,1.0,82,0.00,,,0.00,VWS V14.01,2013-10-01 09:45:00,
2013-10-01 06:00:00,77.1,71.2,29.97,ESE,112,0.0,0.0,82,0.00,,,0.00,VWS V14.01,2013-10-01 10:00:00,
2013-10-01 06:15:00,76.8,71.2,29.97,ESE,112,0.0,0.0,83,0.00,,,0.00,VWS V14.01,2013-10-01 10:15:00,
2013-10-01 06:30:00,77.0,71.8,29.98,ESE,112,0.0,1.0,84,0.00,,,0.00,VWS V14.01,2013-10-01 10:30:00,
2013-10-01 06:45:00,77.0,72.2,29.98,ESE,112,0.0,0.0,85,0.00,,,0.00,VWS V14.01,2013-10-01 10:45:00,
2013-10-01 07:00:00,77.0,72.2,29.98,ESE,112,0.0,1.0,85,0.00,,,0.00,VWS V14.01,2013-10-01 11:00:00,
2013-10-01 07:15:00,77.3,72.8,29.98,ESE,112,0.0,2.0,86,0.00,,,0.00,VWS V14.01,2013-10-01 11:15:00,
2013-10-01 07:30:00,77.2,72.7,29.98,ESE,112,0.0,0.0,86,0.00,,,0.00,VWS V14.01,2013-10-01 11:30:00,
2013-10-01 07:45:00,77.2,73.0,29.99,ESE,112,0.0,1.0,87,0.00,,,0.00,VWS V14.01,2013-10-01 11:45:00,
2013-10-01 08:00:00,77.5,73.7,29.99,SW,225,0.0,1.0,88,0.00,,,0.00,VWS V14.01,2013-10-01 12:00:00,
2013-10-01 08:15:00,78.8,74.3,29.99,West,270,0.0,1.0,86,0.00,,,0.00,VWS V14.01,2013-10-01 12:15:00,
2013-10-01 08:30:00,80.6,75.0,30.00,West,270,0.0,2.0,83,0.00,,,0.00,VWS V14.01,2013-10-01 12:30:00,
2013-10-01 08:45:00,82.9,75.3,30.00,ENE,68,1.0,4.0,78,0.00,,,0.00,VWS V14.01,2013-10-01 12:45:00,
2013-10-01 09:00:00,84.5,75.3,30.00,NE,45,1.0,5.0,74,0.00,,,0.00,VWS V14.01,2013-10-01 13:00:00,
2013-10-01 09:15:00,85.0,75.0,30.01,NE,45,2.0,6.0,72,0.00,,,0.00,VWS V14.01,2013-10-01 13:15:00,
2013-10-01 09:30:00,85.7,75.2,30.01,NE,45,2.0,8.0,71,0.00,,,0.00,VWS V14.01,2013-10-01 13:30:00,
2013-10-01 09:45:00,85.9,74.6,30.01,ENE,68,2.0,9.0,69,0.00,,,0.00,VWS V14.01,2013-10-01 13:45:00,
2013-10-01 10:00:00,85.3,74.4,30.02,East,90,2.0,8.0,70,0.00,,,0.00,VWS V14.01,2013-10-01 14:00:00,
2013-10-01 10:15:00,87.5,74.3,30.02,ENE,68,2.0,9.0,65,0.00,,,0.00,VWS V14.01,2013-10-01 14:15:00,
2013-10-01 10:30:00,85.7,75.2,30.01,NE,45,2.0,8.0,71,0.00,,,0.00,VWS V14.01,2013-10-01 14:30:00,
2013-10-01 10:42:00,87.5,74.3,30.02,ENE,68,2.0,9.0,65,0.00,,,0.00,VWS V14.01,2013-10-01 14:42:00,
2013-10-01 10:45:00,87.5,74.3,30.02,NNE,30,3.0,9.0,65,0.00,,,0.00,VWS V14.01,2013-10-01 14:45:00,
2013-10-01 10:47:00,87.6,74.4,30.02,NE,35,4.0,5.0,65,0.00,,,0.00,VWS V14.01,2013-10-01 14:47:00,
2013-10-01 10:52:00,87.5,73.8,30.02,NE,55,3.0,7.0,64,0.00,,,0.00,VWS V14.01,2013-10-01 14:52:00,
2013-10-01 10:57:00,87.4,73.7,30.02,SE,132,3.0,7.0,64,0.00,,,0.00,VWS V14.01,2013-10-01 14:57:00,
2013-10-01 11:00:00,87.2,73.6,30.02,East,84,5.0,8.0,64,0.00,,,0.00,VWS V14.01,2013-10-01 15:00:00,
2013-10-01 11:02:00,87.1,73.4,30.02,NNE,29,2.0,6.0,64,0.00,,,0.00,VWS V14.01,2013-10-01 15:02:00,
2013-10-01 11:07:00,86.8,73.2,30.02,ENE,58,5.0,11.0,64,0.00,,,0.00,VWS V14.01,2013-10-01 15:07:00,
2013-10-01 11:12:00,87.2,73.1,30.02,NNE,24,2.0,11.0,63,0.00,,,0.00,VWS V14.01,2013-10-01 15:12:00,
2013-10-01 11:15:00,87.0,72.4,30.02,SSW,205,3.0,11.0,62,0.00,,,0.00,VWS V14.01,2013-10-01 15:15:00,
2013-10-01 11:17:00,87.1,72.5,30.02,ENE,61,3.0,7.0,62,0.00,,,0.00,VWS V14.01,2013-10-01 15:17:00,
2013-10-01 11:22:00,87.0,72.9,30.02,ENE,66,2.0,10.0,63,0.00,,,0.00,VWS V14.01,2013-10-01 15:22:00,
2013-10-01 11:27:00,87.8,72.7,30.02,ENE,67,3.0,10.0,61,0.00,,,0.00,VWS V14.01,2013-10-01 15:27:00,
2013-10-01 11:30:00,87.7,73.1,30.02,NE,52,1.0,10.0,62,0.00,,,0.00,VWS V14.01,2013-10-01 15:30:00,
2013-10-01 11:32:00,87.6,73.0,30.02,North,5,7.0,7.0,62,0.00,,,0.00,VWS V14.01,2013-10-01 15:32:00,
2013-10-01 11:37:00,87.8,72.7,30.02,East,87,3.0,8.0,61,0.00,,,0.00,VWS V14.01,2013-10-01 15:37:00,
2013-10-01 11:42:00,89.0,72.8,30.02,East,82,7.0,10.0,59,0.00,,,0.00,VWS V14.01,2013-10-01 15:42:00,
2013-10-01 11:45:00,89.4,73.2,30.02,ENE,77,3.0,12.0,59,0.00,,,0.00,VWS V14.01,2013-10-01 15:45:00,
2013-10-01 11:47:00,89.7,73.5,30.02,NNE,33,1.0,6.0,59,0.00,,,0.00,VWS V14.01,2013-10-01 15:47:00,
2013-10-01 11:52:00,89.6,72.4,30.02,NNE,12,5.0,10.0,57,0.00,,,0.00,VWS V14.01,2013-10-01 15:52:00,
2013-10-01 11:57:00,89.6,72.9,30.02,ENE,74,5.0,10.0,58,0.00,,,0.00,VWS V14.01,2013-10-01 15:57:00,
2013-10-01 12:00:00,89.6,72.9,30.02,East,82,2.0,10.0,58,0.00,,,0.00,VWS V14.01,2013-10-01 16:00:00,
2013-10-01 12:02:00,89.7,73.0,30.02,NE,34,3.0,8.0,58,0.00,,,0.00,VWS V14.01,2013-10-01 16:02:00,
2013-10-01 12:07:00,89.6,73.4,30.02,ENE,68,2.0,11.0,59,0.00,,,0.00,VWS V14.01,2013-10-01 16:07:00,
2013-10-01 12:12:00,90.2,72.9,30.01,NE,51,0.0,14.0,57,0.00,,,0.00,VWS V14.01,2013-10-01 16:12:00,
2013-10-01 12:15:00,90.7,72.3,30.02,ENE,75,7.0,14.0,55,0.00,,,0.00,VWS V14.01,2013-10-01 16:15:00,
2013-10-01 12:17:00,90.8,71.3,30.02,East,88,3.0,7.0,53,0.00,,,0.00,VWS V14.01,2013-10-01 16:17:00,
2013-10-01 12:22:00,90.1,72.8,30.01,NE,49,4.0,10.0,57,0.00,,,0.00,VWS V14.01,2013-10-01 16:22:00,
2013-10-01 12:27:00,89.9,73.2,30.01,NNE,17,6.0,10.0,58,0.00,,,0.00,VWS V14.01,2013-10-01 16:27:00,
2013-10-01 12:30:00,87.7,73.1,30.02,NE,52,1.0,10.0,62,0.00,,,0.00,VWS V14.01,2013-10-01 16:30:00,
2013-10-01 12:31:00,90.4,72.6,30.01,ENE,70,8.0,8.0,56,0.00,,,0.00,VWS V14.01,2013-10-01 16:31:00,
2013-10-01 12:36:00,91.0,71.5,30.02,ENE,65,3.0,11.0,53,0.00,,,0.00,VWS V14.01,2013-10-01 16:36:00,
2013-10-01 12:41:00,91.1,72.2,30.02,ENE,72,2.0,11.0,54,0.00,,,0.00,VWS V14.01,2013-10-01 16:41:00,
2013-10-01 12:45:00,91.6,73.2,30.02,SE,126,4.0,11.0,55,0.00,,,0.00,VWS V14.01,2013-10-01 16:45:00,
2013-10-01 12:46:00,91.7,72.7,30.01,East,90,9.0,9.0,54,0.00,,,0.00,VWS V14.01,2013-10-01 16:46:00,
2013-10-01 12:56:00,92.5,72.9,30.01,ESE,118,1.0,1.0,53,0.00,,,0.00,VWS V14.01,2013-10-01 16:56:00,
2013-10-01 13:00:00,89.6,72.9,30.02,East,82,2.0,10.0,58,0.00,,,0.00,VWS V14.01,2013-10-01 17:00:00,
2013-10-01 13:01:00,92.2,73.2,30.01,ESE,120,3.0,9.0,54,0.00,,,0.00,VWS V14.01,2013-10-01 17:01:00,
2013-10-01 13:06:00,92.0,73.5,30.01,ESE,112,4.0,12.0,55,0.00,,,0.00,VWS V14.01,2013-10-01 17:06:00,
2013-10-01 13:11:00,91.9,73.4,30.01,ENE,57,5.0,12.0,55,0.00,,,0.00,VWS V14.01,2013-10-01 17:11:00,
2013-10-01 13:15:00,90.7,72.3,30.02,ENE,75,7.0,14.0,55,0.00,,,0.00,VWS V14.01,2013-10-01 17:15:00,
2013-10-01 13:16:00,92.3,73.8,30.01,ESE,119,3.0,5.0,55,0.00,,,0.00,VWS V14.01,2013-10-01 17:16:00,
2013-10-01 13:21:00,92.0,73.0,30.01,East,83,5.0,9.0,54,0.00,,,0.00,VWS V14.01,2013-10-01 17:21:00,
2013-10-01 13:26:00,91.6,73.2,30.00,East,101,6.0,10.0,55,0.00,,,0.00,VWS V14.01,2013-10-01 17:26:00,
2013-10-01 13:30:00,90.4,72.6,30.02,NE,41,2.0,10.0,56,0.00,,,0.00,VWS V14.01,2013-10-01 17:30:00,
2013-10-01 13:31:00,91.8,73.9,30.00,North,355,2.0,7.0,56,0.00,,,0.00,VWS V14.01,2013-10-01 17:31:00,
2013-10-01 13:36:00,92.5,73.4,30.00,SSE,166,2.0,8.0,54,0.00,,,0.00,VWS V14.01,2013-10-01 17:36:00,
2013-10-01 13:42:00,92.9,73.3,30.00,NE,53,4.0,8.0,53,0.00,,,0.00,VWS V14.01,2013-10-01 17:42:00,
2013-10-01 13:45:00,91.6,73.2,30.02,SE,126,4.0,11.0,55,0.00,,,0.00,VWS V14.01,2013-10-01 17:45:00,
2013-10-01 13:47:00,91.5,72.5,30.00,East,81,6.0,11.0,54,0.00,,,0.00,VWS V14.01,2013-10-01 17:47:00,
2013-10-01 13:52:00,92.1,74.2,30.00,East,96,3.0,11.0,56,0.00,,,0.00,VWS V14.01,2013-10-01 17:52:00,
2013-10-01 13:57:00,92.4,73.9,29.99,SE,136,1.0,11.0,55,0.00,,,0.00,VWS V14.01,2013-10-01 17:57:00,
2013-10-01 14:00:00,92.2,73.2,30.01,ESE,103,2.0,11.0,54,0.00,,,0.00,VWS V14.01,2013-10-01 18:00:00,
2013-10-01 14:02:00,93.2,73.5,29.99,East,96,1.0,7.0,53,0.00,,,0.00,VWS V14.01,2013-10-01 18:02:00,
2013-10-01 14:07:00,92.8,73.2,29.99,ESE,117,7.0,10.0,53,0.00,,,0.00,VWS V14.01,2013-10-01 18:07:00,
2013-10-01 14:12:00,92.3,71.6,29.99,East,80,1.0,10.0,51,0.00,,,0.00,VWS V14.01,2013-10-01 18:12:00,
2013-10-01 14:15:00,92.2,73.2,30.01,ENE,66,1.0,12.0,54,0.00,,,0.00,VWS V14.01,2013-10-01 18:15:00,
2013-10-01 14:17:00,92.2,72.6,29.99,ENE,63,1.0,6.0,53,0.00,,,0.00,VWS V14.01,2013-10-01 18:17:00,
2013-10-01 14:22:00,92.4,72.2,29.98,ESE,116,9.0,11.0,52,0.00,,,0.00,VWS V14.01,2013-10-01 18:22:00,
2013-10-01 14:27:00,92.2,72.6,29.99,East,82,2.0,11.0,53,0.00,,,0.00,VWS V14.01,2013-10-01 18:27:00,
2013-10-01 14:30:00,91.6,73.7,30.00,ENE,61,2.0,10.0,56,0.00,,,0.00,VWS V14.01,2013-10-01 18:30:00,
2013-10-01 14:32:00,92.6,72.4,29.99,NNE,20,2.0,9.0,52,0.00,,,0.00,VWS V14.01,2013-10-01 18:32:00,
2013-10-01 14:37:00,91.5,71.4,29.98,ENE,57,5.0,10.0,52,0.00,,,0.00,VWS V14.01,2013-10-01 18:37:00,
2013-10-01 14:42:00,91.1,72.2,29.98,NE,34,7.0,12.0,54,0.00,,,0.00,VWS V14.01,2013-10-01 18:42:00,
2013-10-01 14:45:00,91.9,72.9,30.00,ENE,66,4.0,12.0,54,0.00,,,0.00,VWS V14.01,2013-10-01 18:45:00,
2013-10-01 14:47:00,90.3,71.9,29.98,NE,49,2.0,7.0,55,0.00,,,0.00,VWS V14.01,2013-10-01 18:47:00,
2013-10-01 14:52:00,91.3,73.4,29.98,ESE,108,9.0,9.0,56,0.00,,,0.00,VWS V14.01,2013-10-01 18:52:00,
2013-10-01 14:57:00,90.8,71.3,29.98,SE,130,4.0,11.0,53,0.00,,,0.00,VWS V14.01,2013-10-01 18:57:00,
2013-10-01 15:00:00,93.0,74.5,29.99,SE,126,3.0,11.0,55,0.00,,,0.00,VWS V14.01,2013-10-01 19:00:00,
2013-10-01 15:02:00,91.1,72.2,29.98,North,5,4.0,6.0,54,0.00,,,0.00,VWS V14.01,2013-10-01 19:02:00,
2013-10-01 15:07:00,91.4,72.4,29.98,ENE,67,4.0,9.0,54,0.00,,,0.00,VWS V14.01,2013-10-01 19:07:00,
2013-10-01 15:12:00,91.6,70.9,29.98,SSW,197,3.0,9.0,51,0.00,,,0.00,VWS V14.01,2013-10-01 19:12:00,
2013-10-01 15:15:00,92.2,72.6,29.99,East,98,3.0,10.0,53,0.00,,,0.00,VWS V14.01,2013-10-01 19:15:00,
2013-10-01 15:17:00,91.9,72.3,29.98,North,350,3.0,7.0,53,0.00,,,0.00,VWS V14.01,2013-10-01 19:17:00,
2013-10-01 15:22:00,91.4,72.4,29.97,NNE,15,3.0,15.0,54,0.00,,,0.00,VWS V14.01,2013-10-01 19:22:00,
2013-10-01 15:27:00,91.4,72.4,29.97,East,98,5.0,15.0,54,0.00,,,0.00,VWS V14.01,2013-10-01 19:27:00,
2013-10-01 15:30:00,92.3,72.7,29.99,ENE,72,5.0,11.0,53,0.00,,,0.00,VWS V14.01,2013-10-01 19:30:00,
2013-10-01 15:32:00,92.1,72.5,29.98,NE,44,5.0,11.0,53,0.00,,,0.00,VWS V14.01,2013-10-01 19:32:00,
2013-10-01 15:37:00,90.2,71.9,29.98,East,96,2.0,12.0,55,0.00,,,0.00,VWS V14.01,2013-10-01 19:37:00,
2013-10-01 15:42:00,89.9,71.6,29.98,NNW,342,4.0,12.0,55,0.00,,,0.00,VWS V14.01,2013-10-01 19:42:00,
2013-10-01 15:45:00,90.4,71.5,29.98,East,90,2.0,12.0,54,0.00,,,0.00,VWS V14.01,2013-10-01 19:45:00,
2013-10-01 15:47:00,90.2,71.9,29.98,SSE,148,3.0,6.0,55,0.00,,,0.00,VWS V14.01,2013-10-01 19:47:00,
2013-10-01 15:52:00,90.8,73.5,29.97,NNE,33,4.0,9.0,57,0.00,,,0.00,VWS V14.01,2013-10-01 19:52:00,
2013-10-01 15:57:00,89.3,73.1,29.97,ENE,68,8.0,11.0,59,0.00,,,0.00,VWS V14.01,2013-10-01 19:57:00,
2013-10-01 16:00:00,91.2,71.7,29.98,NE,56,2.0,11.0,53,0.00,,,0.00,VWS V14.01,2013-10-01 20:00:00,
2013-10-01 16:02:00,89.4,72.7,29.97,ENE,59,8.0,12.0,58,0.00,,,0.00,VWS V14.01,2013-10-01 20:02:00,
2013-10-01 16:07:00,89.7,73.0,29.97,SSW,194,3.0,12.0,58,0.00,,,0.00,VWS V14.01,2013-10-01 20:07:00,
2013-10-01 16:12:00,90.1,73.3,29.97,East,84,2.0,12.0,58,0.00,,,0.00,VWS V14.01,2013-10-01 20:12:00,
2013-10-01 16:15:00,91.9,71.2,29.98,ENE,72,4.0,9.0,51,0.00,,,0.00,VWS V14.01,2013-10-01 20:15:00,
2013-10-01 16:17:00,90.0,72.7,29.97,ESE,118,3.0,6.0,57,0.00,,,0.00,VWS V14.01,2013-10-01 20:17:00,
2013-10-01 16:22:00,89.4,72.7,29.97,ESE,104,7.0,10.0,58,0.00,,,0.00,VWS V14.01,2013-10-01 20:22:00,
2013-10-01 16:27:00,89.6,72.4,29.97,ENE,67,5.0,10.0,57,0.00,,,0.00,VWS V14.01,2013-10-01 20:27:00,
2013-10-01 16:30:00,92.1,73.1,29.97,South,182,5.0,15.0,54,0.00,,,0.00,VWS V14.01,2013-10-01 20:30:00,
2013-10-01 16:32:00,89.8,72.0,29.97,North,10,6.0,9.0,56,0.00,,,0.00,VWS V14.01,2013-10-01 20:32:00,
2013-10-01 16:37:00,89.1,72.4,29.96,NE,51,5.0,17.0,58,0.00,,,0.00,VWS V14.01,2013-10-01 20:37:00,
2013-10-01 16:42:00,89.2,72.5,29.96,ENE,59,2.0,17.0,58,0.00,,,0.00,VWS V14.01,2013-10-01 20:42:00,
2013-10-01 16:45:00,89.9,71.0,29.98,SSW,202,4.0,12.0,54,0.00,,,0.00,VWS V14.01,2013-10-01 20:45:00,
2013-10-01 16:47:00,89.0,73.3,29.96,North,360,10.0,11.0,60,0.00,,,0.00,VWS V14.01,2013-10-01 20:47:00,
2013-10-01 16:52:00,88.3,73.2,29.96,SE,129,1.0,11.0,61,0.00,,,0.00,VWS V14.01,2013-10-01 20:52:00,
2013-10-01 16:57:00,89.0,73.3,29.96,East,88,3.0,11.0,60,0.00,,,0.00,VWS V14.01,2013-10-01 20:57:00,
2013-10-01 17:00:00,89.3,72.6,29.97,ENE,67,5.0,11.0,58,0.00,,,0.00,VWS V14.01,2013-10-01 21:00:00,
2013-10-01 17:02:00,88.8,73.1,29.96,ENE,61,2.0,5.0,60,0.00,,,0.00,VWS V14.01,2013-10-01 21:02:00,
2013-10-01 17:07:00,88.5,73.3,29.96,South,178,5.0,12.0,61,0.00,,,0.00,VWS V14.01,2013-10-01 21:07:00,
2013-10-01 17:12:00,88.8,72.6,29.96,ENE,62,2.0,12.0,59,0.00,,,0.00,VWS V14.01,2013-10-01 21:12:00,
2013-10-01 17:15:00,90.2,72.4,29.97,NE,49,2.0,12.0,56,0.00,,,0.00,VWS V14.01,2013-10-01 21:15:00,
2013-10-01 17:17:00,88.9,71.7,29.96,NNE,24,2.0,8.0,57,0.00,,,0.00,VWS V14.01,2013-10-01 21:17:00,
2013-10-01 17:22:00,88.7,71.5,29.97,ENE,65,8.0,10.0,57,0.00,,,0.00,VWS V14.01,2013-10-01 21:22:00,
2013-10-01 17:27:00,89.2,71.5,29.97,East,96,2.0,10.0,56,0.00,,,0.00,VWS V14.01,2013-10-01 21:27:00,
2013-10-01 17:30:00,89.7,72.4,29.97,ENE,60,3.0,10.0,57,0.00,,,0.00,VWS V14.01,2013-10-01 21:30:00,
2013-10-01 17:32:00,89.1,71.4,29.97,East,84,1.0,8.0,56,0.00,,,0.00,VWS V14.01,2013-10-01 21:32:00,
2013-10-01 17:38:00,88.8,71.1,29.97,NE,48,2.0,11.0,56,0.00,,,0.00,VWS V14.01,2013-10-01 21:38:00,
2013-10-01 17:43:00,88.3,72.2,29.97,NE,47,1.0,11.0,59,0.00,,,0.00,VWS V14.01,2013-10-01 21:43:00,
2013-10-01 17:45:00,89.0,72.8,29.96,South,182,3.0,17.0,59,0.00,,,0.00,VWS V14.01,2013-10-01 21:45:00,
2013-10-01 17:48:00,88.7,72.0,29.97,ENE,59,5.0,7.0,58,0.00,,,0.00,VWS V14.01,2013-10-01 21:48:00,
2013-10-01 17:53:00,87.6,71.0,29.98,NE,55,6.0,10.0,58,0.00,,,0.00,VWS V14.01,2013-10-01 21:53:00,
2013-10-01 17:58:00,87.8,71.2,29.98,NE,46,3.0,10.0,58,0.00,,,0.00,VWS V14.01,2013-10-01 21:58:00,
2013-10-01 18:00:00,89.0,72.8,29.96,NE,43,4.0,11.0,59,0.00,,,0.00,VWS V14.01,2013-10-01 22:00:00,
2013-10-01 18:03:00,87.9,71.3,29.97,NNE,24,3.0,9.0,58,0.00,,,0.00,VWS V14.01,2013-10-01 22:03:00,
2013-10-01 18:08:00,87.3,71.7,29.98,NNE,13,5.0,11.0,60,0.00,,,0.00,VWS V14.01,2013-10-01 22:08:00,
2013-10-01 18:13:00,87.4,71.8,29.98,ENE,73,3.0,11.0,60,0.00,,,0.00,VWS V14.01,2013-10-01 22:13:00,
2013-10-01 18:15:00,89.1,72.9,29.96,ENE,68,2.0,12.0,59,0.00,,,0.00,VWS V14.01,2013-10-01 22:15:00,
2013-10-01 18:18:00,86.9,71.8,29.98,NNE,31,3.0,10.0,61,0.00,,,0.00,VWS V14.01,2013-10-01 22:18:00,
2013-10-01 18:23:00,86.5,71.9,29.98,NE,47,4.0,10.0,62,0.00,,,0.00,VWS V14.01,2013-10-01 22:23:00,
2013-10-01 18:28:00,85.4,71.8,29.98,East,79,2.0,11.0,64,0.00,,,0.00,VWS V14.01,2013-10-01 22:28:00,
2013-10-01 18:30:00,89.3,71.6,29.97,SE,133,4.0,10.0,56,0.00,,,0.00,VWS V14.01,2013-10-01 22:30:00,
2013-10-01 18:33:00,84.9,71.8,29.99,East,96,3.0,7.0,65,0.00,,,0.00,VWS V14.01,2013-10-01 22:33:00,
2013-10-01 18:38:00,84.5,71.9,29.99,NE,43,3.0,8.0,66,0.00,,,0.00,VWS V14.01,2013-10-01 22:38:00,
2013-10-01 18:43:00,84.1,72.0,29.99,NE,53,2.0,11.0,67,0.00,,,0.00,VWS V14.01,2013-10-01 22:43:00,
2013-10-01 18:45:00,88.8,72.1,29.97,NNE,26,3.0,11.0,58,0.00,,,0.00,VWS V14.01,2013-10-01 22:45:00,
2013-10-01 18:48:00,83.8,72.1,29.99,North,355,6.0,7.0,68,0.00,,,0.00,VWS V14.01,2013-10-01 22:48:00,
2013-10-01 18:53:00,83.6,71.9,29.99,East,84,2.0,8.0,68,0.00,,,0.00,VWS V14.01,2013-10-01 22:53:00,
2013-10-01 18:58:00,83.4,72.2,30.00,East,91,5.0,9.0,69,0.00,,,0.00,VWS V14.01,2013-10-01 22:58:00,
2013-10-01 19:00:00,88.1,72.0,29.98,East,89,5.0,10.0,59,0.00,,,0.00,VWS V14.01,2013-10-01 23:00:00,
2013-10-01 19:03:00,83.2,72.0,30.00,NE,42,5.0,8.0,69,0.00,,,0.00,VWS V14.01,2013-10-01 23:03:00,
2013-10-01 19:08:00,83.2,72.0,30.00,East,80,6.0,11.0,69,0.00,,,0.00,VWS V14.01,2013-10-01 23:08:00,
2013-10-01 19:13:00,82.9,72.1,30.00,NE,39,2.0,12.0,70,0.00,,,0.00,VWS V14.01,2013-10-01 23:13:00,
2013-10-01 19:15:00,87.2,72.1,29.98,NE,45,2.0,11.0,61,0.00,,,0.00,VWS V14.01,2013-10-01 23:15:00,
2013-10-01 19:18:00,82.8,72.4,30.00,ENE,71,2.0,5.0,71,0.00,,,0.00,VWS V14.01,2013-10-01 23:18:00,
2013-10-01 19:20:00,82.8,72.4,30.00,East,82,1.0,5.0,71,0.00,,,0.00,VWS V14.01,2013-10-01 23:20:00,
2013-10-01 19:25:00,82.7,72.3,30.00,ENE,77,1.0,8.0,71,0.00,,,0.00,VWS V14.01,2013-10-01 23:25:00,
2013-10-01 19:30:00,82.6,72.2,30.00,North,355,5.0,8.0,71,0.00,,,0.00,VWS V14.01,2013-10-01 23:30:00,
2013-10-01 19:35:00,82.5,72.2,30.00,ENE,74,0.0,8.0,71,0.00,,,0.00,VWS V14.01,2013-10-01 23:35:00,
2013-10-01 19:40:00,82.5,72.2,30.00,East,99,6.0,8.0,71,0.00,,,0.00,VWS V14.01,2013-10-01 23:40:00,
2013-10-01 19:45:00,82.4,72.1,30.00,East,87,3.0,9.0,71,0.00,,,0.00,VWS V14.01,2013-10-01 23:45:00,
2013-10-01 19:50:00,82.4,72.1,30.00,NE,39,2.0,8.0,71,0.00,,,0.00,VWS V14.01,2013-10-01 23:50:00,
2013-10-01 19:55:00,82.4,72.1,30.00,NNE,18,0.0,8.0,71,0.00,,,0.00,VWS V14.01,2013-10-01 23:55:00,
2013-10-01 20:00:00,82.3,72.0,30.00,ENE,67,0.0,8.0,71,0.00,,,0.00,VWS V14.01,2013-10-02 00:00:00,
2013-10-01 20:05:00,82.3,72.0,30.00,ENE,66,1.0,12.0,71,0.00,,,0.00,VWS V14.01,2013-10-02 00:05:00,
2013-10-01 20:10:00,82.2,71.9,30.00,ENE,57,0.0,12.0,71,0.00,,,0.00,VWS V14.01,2013-10-02 00:10:00,
2013-10-01 20:15:00,82.1,72.2,30.00,ENE,68,8.0,12.0,72,0.00,,,0.00,VWS V14.01,2013-10-02 00:15:00,
2013-10-01 20:16:00,82.1,72.2,30.00,East,80,2.0,8.0,72,0.00,,,0.00,VWS V14.01,2013-10-02 00:16:00,
2013-10-01 20:21:00,82.0,71.7,30.00,East,84,1.0,12.0,71,0.00,,,0.00,VWS V14.01,2013-10-02 00:21:00,
2013-10-01 20:26:00,82.0,72.1,30.00,ENE,58,0.0,12.0,72,0.00,,,0.00,VWS V14.01,2013-10-02 00:26:00,
2013-10-01 20:30:00,82.6,72.2,30.00,ENE,62,1.0,8.0,71,0.00,,,0.00,VWS V14.01,2013-10-02 00:30:00,
2013-10-01 20:31:00,82.0,72.1,30.00,NNE,32,3.0,3.0,72,0.00,,,0.00,VWS V14.01,2013-10-02 00:31:00,
2013-10-01 20:36:00,81.9,72.0,30.00,NNE,32,0.0,8.0,72,0.00,,,0.00,VWS V14.01,2013-10-02 00:36:00,
2013-10-01 20:41:00,81.8,71.9,30.00,ENE,61,1.0,8.0,72,0.00,,,0.00,VWS V14.01,2013-10-02 00:41:00,
2013-10-01 20:45:00,82.5,72.2,30.00,NNE,32,3.0,9.0,71,0.00,,,0.00,VWS V14.01,2013-10-02 00:45:00,
2013-10-01 20:46:00,81.7,72.2,30.00,East,87,1.0,7.0,73,0.00,,,0.00,VWS V14.01,2013-10-02 00:46:00,
2013-10-01 20:51:00,81.7,72.2,30.00,NE,53,1.0,7.0,73,0.00,,,0.00,VWS V14.01,2013-10-02 00:51:00,
2013-10-01 20:56:00,81.7,72.2,30.00,NE,52,1.0,7.0,73,0.00,,,0.00,VWS V14.01,2013-10-02 00:56:00,
2013-10-01 21:00:00,82.3,72.4,30.00,NE,37,3.0,8.0,72,0.00,,,0.00,VWS V14.01,2013-10-02 01:00:00,
2013-10-01 21:01:00,81.6,72.1,30.00,North,5,1.0,5.0,73,0.00,,,0.00,VWS V14.01,2013-10-02 01:01:00,
2013-10-01 21:06:00,81.6,72.1,30.01,NE,42,1.0,5.0,73,0.00,,,0.00,VWS V14.01,2013-10-02 01:06:00,
2013-10-01 21:11:00,81.5,72.4,30.01,NE,40,1.0,5.0,74,0.00,,,0.00,VWS V14.01,2013-10-02 01:11:00,
2013-10-01 21:15:00,82.1,72.2,30.00,NNE,26,8.0,12.0,72,0.00,,,0.00,VWS V14.01,2013-10-02 01:15:00,
2013-10-01 21:16:00,81.5,72.4,30.01,NNE,30,1.0,3.0,74,0.00,,,0.00,VWS V14.01,2013-10-02 01:16:00,
2013-10-01 21:21:00,81.5,72.4,30.01,North,5,2.0,5.0,74,0.00,,,0.00,VWS V14.01,2013-10-02 01:21:00,
2013-10-01 21:26:00,81.4,72.3,30.01,East,88,1.0,5.0,74,0.00,,,0.00,VWS V14.01,2013-10-02 01:26:00,
2013-10-01 21:30:00,82.0,72.1,30.00,NE,41,3.0,12.0,72,0.00,,,0.00,VWS V14.01,2013-10-02 01:30:00,
2013-10-01 21:31:00,81.4,72.3,30.01,ENE,59,0.0,4.0,74,0.00,,,0.00,VWS V14.01,2013-10-02 01:31:00,
2013-10-01 21:36:00,81.4,72.7,30.02,ENE,73,1.0,4.0,75,0.00,,,0.00,VWS V14.01,2013-10-02 01:36:00,
2013-10-01 21:41:00,81.4,72.7,30.02,ENE,77,1.0,7.0,75,0.00,,,0.00,VWS V14.01,2013-10-02 01:41:00,
2013-10-01 21:45:00,81.7,71.8,30.00,ENE,59,0.0,8.0,72,0.00,,,0.00,VWS V14.01,2013-10-02 01:45:00,
2013-10-01 22:00:00,81.3,72.6,30.02,ENE,68,2.0,7.0,75,0.00,,,0.00,VWS V14.01,2013-10-02 02:00:00,
2013-10-01 22:15:00,81.5,72.8,30.02,ENE,68,2.0,7.0,75,0.00,,,0.00,VWS V14.01,2013-10-02 02:15:00,
2013-10-01 22:30:00,81.4,73.1,30.03,NE,45,2.0,9.0,76,0.00,,,0.00,VWS V14.01,2013-10-02 02:30:00,
2013-10-01 22:45:00,81.4,73.1,30.02,ENE,68,3.0,11.0,76,0.00,,,0.00,VWS V14.01,2013-10-02 02:45:00,
2013-10-01 23:00:00,81.5,72.8,30.02,ENE,68,2.0,8.0,75,0.00,,,0.00,VWS V14.01,2013-10-02 03:00:00,
2013-10-01 23:15:00,81.3,73.0,30.02,NE,45,2.0,13.0,76,0.00,,,0.00,VWS V14.01,2013-10-02 03:15:00,
2013-10-01 23:30:00,81.2,72.9,30.01,East,90,2.0,9.0,76,0.00,,,0.00,VWS V14.01,2013-10-02 03:30:00,
2013-10-01 23:45:00,81.2,72.9,30.01,ENE,68,2.0,9.0,76,0.00,,,0.00,VWS V14.01,2013-10-02 03:45:00,